Wind_Speed
7 7 6 5 6 4 3 4 4 3 4 5 4 4 4 4 3 4 5 6 7 9 7 5 5 5 5 4 4 5 5 6 7 8 8 9 9 10 11 12 11 12 13
7 5 4 3 2 1 3 5 6 7 6 6 6 6 7 7 7 7 8 9 10 9 9 8 8 7 7 6 5 5 6 7 8 8 8 9 9 10 11 10 12 13 14
6 4 4 2 3 1 3 3 3 5 5 5 7 8 8 8 9 8 7 10 9 10 10 9 10 10 10 9 7 7 7 9 9 9 10 10 10 11 11 12 14 15 16
6 6 5 3 2 1 2 3 5 6 7 8 10 10 9 10 10 9 8 9 11 12 12 13 13 13 12 12 11 10 10 10 11 11 11 11 11 11 12 13 14 15 17
7 5 4 4 1 2 2 3 4 5 8 10 10 12 12 11 10 9 9 9 10 12 14 15 16 16 15 15 15 13 13 13 12 13 12 13 13 13 13 13 14 15 15
8 7 6 3 2 2 3 3 4 6 8 11 15 14 16 11 9 7 9 9 11 13 13 16 17 17 17 17 17 16 16 15 15 15 15 15 15 14 14 15 15 15 15
9 8 6 4 3 1 3 4 5 7 7 11 10 19 8 11 1 3 9 10 9 9 11 14 18 19 19 20 20 20 20 18 19 18 18 18 17 16 16 16 15 15 14
10 9 6 3 2 3 3 5 6 6 5 10 7 5 4 5 2 20 9 6 10 12 14 17 20 21 22 23 23 23 24 23 22 22 22 21 20 19 18 17 17 16 14
10 8 7 4 2 1 2 3 4 5 5 6 8 3 3 2 12 5 16 9 7 20 21 22 23 23 24 25 26 26 27 28 27 25 24 23 22 22 21 19 18 18 15
11 9 7 5 3 1 2 2 3 4 5 7 7 3 6 7 1 5 4 18 15 20 19 22 24 26 28 29 30 30 30 31 31 28 26 26 26 25 24 22 21 20 18
10 8 7 6 3 1 2 2 2 3 4 5 7 10 11 12 10 5 9 17 24 20 22 22 26 29 30 30 29 32 33 33 32 32 30 28 28 28 28 26 24 22 22
13 10 7 5 3 1 1 2 3 4 5 5 6 7 8 6 11 6 6 17 22 28 23 26 26 25 25 27 29 29 29 33 34 35 32 31 30 30 29 28 26 25 23
13 10 8 6 6 5 4 5 5 6 6 6 6 7 8 9 13 16 15 16 12 24 22 27 24 26 25 28 31 31 32 31 31 35 35 33 31 31 31 29 27 25 25
12 11 9 8 7 5 5 5 5 5 6 7 7 8 9 10 12 14 17 17 12 14 19 20 27 27 24 29 31 33 35 35 37 32 33 36 36 35 33 32 27 26 25
14 12 10 9 7 6 5 6 6 7 8 8 9 10 11 12 14 16 17 19 15 10 11 23 18 27 30 32 33 35 38 40 38 38 37 38 38 37 37 36 33 30 32
14 12 10 9 7 6 6 6 7 9 9 10 11 12 13 15 16 18 19 20 21 18 9 25 25 29 30 32 34 34 36 38 39 39 39 36 38 39 40 38 34 33 32
14 12 10 8 7 7 8 8 9 9 10 10 11 13 15 17 19 19 21 22 25 22 19 27 27 28 30 29 30 32 35 36 37 39 41 38 36 38 38 37 35 31 29
13 11 9 8 7 8 7 8 9 10 11 12 13 15 16 18 18 20 21 25 24 22 21 28 30 32 31 32 34 35 33 34 37 38 40 34 37 37 36 37 35 28 32
12 10 9 8 8 7 6 7 10 11 13 14 14 15 16 16 18 20 22 21 19 21 25 29 35 33 33 29 31 32 34 34 34 36 38 33 36 33 32 29 18 15 19
11 10 10 9 8 6 5 8 10 12 15 16 15 15 16 15 19 19 19 21 22 25 26 27 31 34 31 31 29 30 33 31 33 35 35 33 35 31 18 12 19 20 15
11 9 8 8 7 7 7 10 12 15 17 18 17 18 18 18 16 14 18 22 24 25 23 26 26 31 30 31 27 28 28 33 34 31 35 27 21 27 20 12 14 13 8
10 8 8 8 8 8 5 9 12 14 16 17 19 20 21 22 20 20 20 20 22 25 25 25 26 25 29 29 28 24 27 26 13 22 18 5 7 9 7 6 8 11 15
8 8 8 8 9 9 10 11 11 14 17 19 20 20 22 24 24 26 25 25 26 23 24 30 30 28 32 26 23 21 20 22 19 11 4 5 5 3 2 4 7 17 24
9 9 9 10 11 12 12 10 12 15 18 20 20 19 19 22 25 23 25 28 30 28 30 28 30 34 27 24 26 27 20 16 3 1 3 4 9 15 15 13 18 15 10
8 9 10 11 13 13 13 13 16 19 22 23 22 19 19 24 25 23 28 31 33 32 29 30 30 29 28 27 19 17 17 9 4 3 4 5 7 18 24 21 16 17 16
8 8 9 10 11 13 14 14 16 20 22 22 19 21 22 21 24 26 30 31 33 35 34 35 30 28 27 24 18 12 11 10 6 2 6 5 11 6 5 11 15 15 15
Wind_Direction
138 118 117 107 113 93 79 56 25 339 344 349 327 338 304 298 303 334 319 316 319 328 312 295 306 316 319 315 316 318 331 341 350 352 352 347 346 347 345 344 342 336 332
144 154 158 132 114 70 29 34 29 23 22 358 352 341 334 329 296 287 298 306 311 318 327 311 305 306 303 296 291 287 302 313 325 331 334 334 333 333 334 334 334 331 326
156 163 155 121 142 15 59 27 9 339 348 351 339 336 317 316 313 310 295 297 290 305 304 305 307 300 293 287 279 274 284 295 307 315 319 323 323 323 323 323 326 327 326
165 151 143 129 121 51 32 5 345 357 356 340 332 324 314 306 297 291 289 288 289 295 296 300 301 302 301 294 285 280 282 287 297 304 309 313 315 314 313 315 319 323 325
171 144 142 143 83 79 16 1 21 354 342 336 329 324 314 304 297 297 293 285 282 287 291 298 301 294 294 298 287 280 281 283 286 292 295 300 303 306 308 307 311 315 320
168 161 164 178 154 104 63 43 352 336 348 344 332 330 318 309 294 292 311 304 293 283 284 288 295 298 295 295 291 286 281 280 281 282 284 288 294 299 304 304 303 306 310
177 170 159 146 121 84 34 10 353 352 4 1 343 343 2 348 345 322 310 303 307 311 297 294 297 298 296 294 292 288 287 281 279 277 279 281 286 290 295 298 296 296 297
173 174 172 151 70 31 10 353 354 358 356 5 359 348 356 338 333 320 316 302 321 325 321 317 302 296 299 297 293 290 288 285 281 280 283 281 281 283 286 289 288 288 284
174 168 155 164 177 242 6 8 2 357 357 3 12 13 1 318 332 327 319 325 341 326 321 317 309 302 299 298 299 298 296 293 288 280 283 280 278 280 282 285 286 280 273
168 170 169 172 165 93 4 28 355 358 347 350 353 23 326 302 310 322 326 310 329 324 322 319 317 308 306 299 293 293 298 298 296 286 281 280 279 281 280 280 280 274 263
162 154 153 153 141 76 48 34 7 0 354 345 351 341 335 330 317 294 311 316 312 314 312 314 316 312 314 311 313 295 294 294 294 289 283 281 279 277 276 276 275 273 272
154 154 151 150 147 136 76 55 51 45 35 22 8 353 339 328 315 313 292 305 308 315 318 312 314 315 317 317 317 319 312 295 293 291 282 281 282 278 273 273 273 274 273
151 148 151 140 122 102 84 61 57 50 34 21 1 351 335 323 320 318 313 309 303 307 311 312 315 316 314 309 306 307 311 310 307 290 280 279 279 277 273 271 270 270 270
147 143 138 129 118 107 84 72 66 46 26 16 9 8 359 352 347 344 335 328 317 308 309 306 311 312 311 310 310 311 313 312 308 304 287 279 277 275 273 266 264 271 272
143 139 130 122 109 95 76 68 55 39 27 14 2 352 348 340 338 338 338 339 326 315 312 312 326 315 315 313 309 310 309 307 310 308 301 292 282 278 281 270 266 265 270
138 134 126 116 105 87 70 57 48 29 13 10 3 356 357 352 349 347 347 343 336 322 307 315 313 313 314 311 309 306 304 305 304 304 303 292 284 282 282 268 260 265 263
132 126 121 109 92 71 56 48 38 19 13 7 3 357 357 354 351 350 344 340 333 329 311 311 312 315 316 314 313 312 307 303 298 300 301 291 288 289 276 264 264 256 256
125 121 110 96 79 63 53 45 25 16 9 3 0 355 355 348 344 341 340 337 334 330 319 313 314 314 313 313 312 311 307 304 303 299 296 291 297 288 276 263 252 252 260
119 109 100 85 71 60 57 30 9 8 7 3 358 351 343 340 335 335 336 336 328 321 316 309 307 308 306 311 310 308 308 308 304 306 304 299 304 291 281 243 236 258 262
106 97 87 78 67 60 37 4 2 1 3 1 357 352 344 339 329 329 328 324 316 315 311 304 306 310 311 313 312 309 309 310 305 305 300 297 298 290 256 250 265 251 266
99 92 84 74 65 50 14 1 359 359 359 353 348 345 342 332 329 321 312 321 316 310 306 304 306 310 310 312 308 307 301 304 304 302 293 296 281 276 236 229 244 240 224
94 84 67 50 41 32 26 2 355 349 349 347 341 338 336 333 330 322 313 311 314 309 304 302 304 304 305 304 302 307 308 308 307 303 286 281 251 195 192 222 241 211 205
85 70 53 35 27 20 12 360 351 341 343 341 339 335 333 331 327 324 323 312 311 308 303 298 293 301 302 309 315 315 312 309 306 307 207 40 60 81 176 195 190 177 148
64 49 37 21 12 12 0 354 350 340 336 335 335 333 326 319 323 320 315 312 310 305 303 301 286 297 293 297 308 312 307 303 271 81 71 72 85 71 93 119 135 133 145
57 37 23 12 2 359 359 357 347 336 332 331 333 331 324 313 317 315 314 313 310 306 303 299 294 292 286 294 304 305 306 293 288 325 32 107 95 80 89 91 107 120 131
44 24 18 9 359 352 351 346 340 337 333 333 326 319 319 315 314 316 315 313 308 306 307 306 293 295 295 290 288 289 296 272 283 268 163 114 134 109 59 84 116 120 125
Height
864 865 866 867 867 868 868 868 868 868 867 867 867 866 866 866 865 864 863 863 862 862 861 860 860 859 859 858 857 856 855 853 852 850 849 848 846 844 842 840 839 837 835
864 865 866 867 868 868 868 868 868 868 867 866 866 865 865 864 864 863 863 862 862 861 861 860 859 858 857 856 855 854 853 852 850 849 847 845 844 842 841 839 837 835 833
864 866 867 867 868 868 869 869 868 867 867 866 865 864 863 863 862 862 862 861 860 860 859 858 857 856 855 854 853 853 852 850 849 847 846 844 842 841 839 837 835 833 830
864 865 866 867 868 868 868 868 867 867 866 865 864 862 861 860 859 859 859 859 858 858 857 857 857 856 855 854 853 852 851 849 847 846 844 843 841 839 837 836 833 831 828
864 865 866 867 867 868 867 867 866 866 865 863 862 860 858 857 857 857 857 857 857 856 856 855 854 853 853 852 851 850 850 848 846 844 842 840 838 836 835 833 831 828 825
863 864 865 866 866 867 866 866 866 866 865 863 861 858 856 854 854 855 856 855 855 854 854 853 852 851 850 849 848 847 846 845 844 842 840 838 836 834 831 830 828 826 823
862 863 864 865 866 866 866 866 865 865 864 863 860 856 854 853 853 855 855 854 854 854 853 852 850 849 847 847 846 844 843 842 841 839 837 835 833 831 829 827 825 823 820
861 863 864 865 866 867 867 866 866 865 865 864 862 860 859 856 854 852 851 853 854 853 852 851 849 848 846 844 843 842 840 839 838 837 835 833 831 828 826 823 821 819 817
861 862 863 864 865 865 866 866 866 865 865 865 864 864 864 865 859 852 853 852 853 853 852 850 848 846 845 843 841 838 836 834 833 832 831 829 827 825 822 820 818 816 814
859 861 862 863 864 865 865 865 865 865 865 865 864 864 865 864 863 856 851 851 851 851 849 847 845 843 841 839 836 834 832 830 828 826 825 823 822 820 818 815 814 811 809
859 860 861 862 863 864 864 864 864 864 864 864 865 864 864 864 863 862 853 847 847 847 846 844 843 840 837 834 832 830 828 825 823 821 819 817 815 813 811 809 807 805 804
857 858 860 861 862 862 863 862 862 863 863 863 864 864 865 865 863 862 859 853 847 840 841 840 839 836 834 831 828 824 821 820 818 813 812 810 808 806 804 802 801 799 797
856 857 859 860 861 862 862 863 863 863 863 863 863 863 863 863 862 860 857 852 848 843 839 835 835 833 831 828 824 820 816 813 810 807 804 801 799 798 797 795 794 792 790
855 856 858 859 860 861 862 862 862 863 863 862 862 861 861 860 859 858 856 852 844 840 838 834 831 828 827 824 820 816 812 807 803 800 798 794 791 789 787 786 786 787 786
854 856 858 859 860 861 861 862 862 862 862 862 861 861 859 858 857 855 854 852 849 840 835 830 828 825 823 820 816 811 807 804 799 795 792 788 785 782 781 779 780 779 778
854 856 858 859 860 861 862 861 861 861 861 861 860 860 858 857 855 853 851 849 846 843 835 832 827 823 819 815 811 807 802 796 791 788 783 780 778 775 772 771 770 771 772
854 856 858 859 861 861 861 860 861 860 860 860 859 857 856 855 853 851 850 847 843 839 832 824 822 818 813 808 803 800 795 790 785 781 776 771 768 768 765 763 763 763 763
853 856 857 859 859 859 860 860 861 860 859 857 855 853 852 852 851 849 847 844 841 838 833 822 818 812 809 804 798 792 787 784 778 773 768 763 759 756 758 757 755 755 757
855 856 857 858 859 859 860 861 860 859 858 855 852 850 850 849 847 846 844 841 839 836 831 823 810 808 801 797 789 785 780 774 770 766 762 757 751 750 747 747 748 750 751
856 857 857 858 859 860 859 858 857 856 854 853 852 850 849 847 845 843 841 839 835 832 827 821 812 800 797 791 789 781 770 771 765 761 755 753 746 745 742 742 744 747 749
855 857 858 858 859 859 858 857 855 853 852 851 851 849 848 846 842 840 838 836 833 827 822 816 809 800 791 786 783 777 772 764 757 755 749 745 741 741 738 739 743 746 747
855 857 858 859 858 858 858 855 852 852 851 850 848 846 845 843 840 838 835 832 829 824 819 812 805 799 790 785 778 774 767 761 750 748 745 741 738 737 737 737 742 744 746
856 856 857 858 857 856 854 853 853 852 849 848 847 844 841 838 835 832 829 826 822 819 814 807 799 793 785 781 776 768 764 761 753 748 743 742 741 740 739 740 742 744 746
856 856 856 857 857 855 854 852 850 848 847 845 842 839 836 834 829 826 822 818 814 809 805 801 795 789 781 776 772 767 761 758 752 747 745 745 746 744 742 742 745 747 749
855 856 856 856 856 856 854 851 851 848 845 842 839 835 834 831 827 823 819 811 803 799 795 792 787 782 777 772 768 763 759 757 754 749 746 747 749 747 747 749 751 752 755
854 855 854 854 855 853 851 849 847 842 840 837 837 833 828 824 822 819 814 806 797 791 787 781 778 774 771 766 763 760 757 755 753 750 747 749 750 750 755 756 756 757 760